GFSMA_700_rhum_000.txt.gz
RH
40 42 39 35 34 33 32 32 32 30 29 32 27 14 5 2 2 4 6 6 6 6 6 6 6 5 6 6 6 8 10 16 33 67 76 84 83 84 88 88 88 79 69
41 44 43 37 34 33 34 32 28 33 32 20 8 2 3 6 7 7 7 7 6 6 6 6 6 6 6 6 7 7 9 11 18 37 59 78 80 86 86 84 85 87 84
43 43 43 38 35 34 32 29 37 32 21 6 2 8 8 8 8 8 7 7 6 6 6 6 6 6 6 6 6 6 6 8 11 15 19 28 54 60 66 68 70 74 74
43 44 41 38 35 31 36 40 34 23 6 3 9 9 9 9 8 8 8 7 7 7 8 8 8 8 8 7 6 6 5 5 4 5 7 8 10 17 24 39 38 47 45
43 47 41 34 32 43 41 37 25 5 4 9 10 10 10 9 9 10 9 8 9 9 9 9 9 8 8 7 7 7 7 6 6 6 6 5 5 5 4 4 4 3 5
42 38 34 36 45 44 37 26 7 6 8 10 10 11 12 12 12 11 11 10 10 10 10 9 9 9 9 9 9 9 8 8 8 8 8 7 7 6 6 5 5 4 4
38 33 45 48 45 37 22 8 6 8 9 11 13 14 14 15 15 14 13 12 12 12 11 11 10 10 10 10 10 10 10 10 9 8 8 8 8 7 6 6 6 5 5
38 49 48 42 32 18 10 7 7 9 12 17 19 19 18 16 16 15 15 14 14 14 14 13 12 12 12 11 10 10 9 10 9 9 9 8 8 7 7 7 7 7 6
49 46 38 28 21 14 9 7 9 14 18 20 21 20 19 18 18 17 17 17 16 16 14 13 12 12 11 10 9 8 8 8 9 10 10 9 9 8 8 8 9 9 9
44 38 31 27 22 15 10 10 13 17 21 22 23 22 22 21 20 18 17 18 17 15 13 11 10 9 8 7 6 6 6 7 8 9 9 9 9 9 9 10 11 12 13
44 47 51 48 36 24 16 13 15 19 23 25 25 23 22 20 18 18 19 16 14 12 9 7 6 5 5 6 6 6 6 7 8 10 11 12 10 8 8 9 11 13 15
53 54 54 52 48 36 24 15 13 19 24 26 24 22 21 20 18 15 14 13 10 7 6 6 6 6 6 7 8 8 9 10 11 12 14 16 16 14 10 9 10 11 12
51 54 55 53 52 50 33 16 11 19 24 24 21 21 19 17 16 15 14 12 8 6 6 7 7 8 9 10 10 11 12 14 17 20 23 25 24 20 17 15 14 14 15
56 59 60 58 55 53 38 11 11 20 23 22 21 20 18 17 18 18 14 10 7 7 8 8 9 10 11 12 13 13 14 15 19 24 28 27 24 21 20 18 18 17 17
61 63 63 62 58 54 34 7 15 22 21 22 21 19 18 20 19 16 15 15 14 9 9 9 10 11 13 12 9 6 6 9 13 15 16 19 19 19 19 17 15 13 12
66 65 65 66 60 57 14 10 20 21 22 22 20 20 23 20 18 17 16 18 17 16 12 10 12 11 8 3 2 3 6 10 16 23 38 31 21 16 14 13 11 9 9
68 67 68 68 62 41 10 18 20 22 23 21 24 25 23 20 18 18 18 17 17 17 16 11 9 4 2 3 5 8 13 30 56 78 52 42 47 33 21 16 16 19 23
70 69 70 65 56 12 18 20 22 25 22 23 26 24 22 20 20 19 18 19 18 12 6 4 3 5 10 14 16 24 33 46 67 67 62 50 46 43 40 42 46 46 60
71 71 68 58 17 18 20 22 24 22 26 29 27 24 22 22 20 20 20 17 10 6 6 14 15 17 20 26 35 41 56 51 51 51 58 57 57 62 67 69 64 61 59
72 68 59 22 19 20 22 23 22 27 30 30 25 25 24 23 22 21 17 9 7 11 19 24 29 36 40 43 55 54 48 47 44 57 68 75 80 83 82 85 78 74 71
69 60 24 20 20 22 22 22 26 29 30 24 25 25 24 23 22 16 9 8 14 21 27 44 61 51 50 46 46 45 49 63 62 80 88 81 83 78 75 78 80 78 75
57 27 21 20 22 21 23 27 30 27 24 26 24 24 24 23 17 10 8 17 27 35 44 52 42 38 40 43 53 68 72 74 59 76 87 71 90 76 81 85 84 87 87
27 20 20 21 20 23 26 28 27 24 25 25 27 26 25 19 10 8 15 20 26 40 54 49 41 42 55 70 73 78 81 80 74 79 95 75 82 69 83 92 94 97 98
19 20 20 21 23 24 26 25 22 23 25 28 28 27 20 11 9 16 18 22 32 37 38 37 58 70 73 81 92 94 91 87 79 83 99 84 81 73 73 71 82 86 89
20 19 22 22 21 25 22 21 24 25 27 29 28 21 11 7 17 23 27 29 32 34 47 68 74 78 78 84 96 100 98 88 73 77 96 86 79 76 75 76 82 79 72
20 22 21 22 22 18 22 26 27 26 28 27 22 11 8 18 23 27 32 34 35 57 63 64 73 81 88 92 99 99 89 68 83 75 94 88 82 94 76 96 100 95 72

GFSMA_700_rhum_003.txt.gz
RH
42 41 40 38 38 33 32 32 34 33 32 34 29 18 8 1 4 6 7 8 8 7 7 6 6 6 6 6 7 6 7 8 10 15 22 39 56 74 81 88 85 86 86
45 44 41 42 39 35 34 33 30 36 37 27 16 4 3 8 8 8 8 8 8 8 8 7 7 6 6 6 6 7 7 7 8 10 12 17 28 55 76 86 84 83 85
47 47 44 44 40 36 33 30 40 37 27 11 1 5 9 9 10 10 10 10 10 10 9 9 9 9 9 8 8 7 7 6 6 6 6 7 10 18 29 41 58 71 74
47 44 43 41 39 34 32 43 39 30 10 2 6 8 10 11 11 12 13 13 13 12 12 11 10 9 9 9 8 8 7 7 6 6 6 5 5 5 5 6 8 14 25
44 39 45 42 35 35 44 39 29 14 4 6 8 9 10 12 14 16 16 16 15 14 13 12 12 12 11 10 10 9 9 9 9 9 9 8 8 7 6 6 5 5 5
38 42 45 35 43 44 37 24 11 5 5 7 9 10 14 17 18 18 18 17 16 15 15 14 14 14 14 13 12 12 11 10 10 10 9 9 8 8 7 7 7 7 6
40 43 35 47 46 32 20 12 7 5 5 8 12 17 19 20 20 19 18 19 18 17 17 16 16 16 15 14 13 12 12 11 10 9 8 8 8 7 7 6 5 6 5
42 36 48 44 31 21 15 11 7 4 6 11 17 19 20 21 22 22 22 21 20 18 17 16 15 15 14 13 13 12 10 9 8 8 8 7 7 7 6 6 6 5 5
40 49 44 35 32 37 34 24 13 8 9 16 20 23 24 24 24 22 23 21 20 18 17 15 14 14 13 11 8 6 5 4 5 5 6 6 6 6 7 7 7 6 6
50 45 42 52 53 51 47 37 20 9 9 16 25 29 30 28 26 22 20 20 19 17 15 14 12 8 5 4 5 6 6 7 7 7 7 7 7 7 7 7 7 8 8
48 49 52 51 51 50 46 42 29 10 6 14 25 30 30 28 27 25 21 19 17 14 12 9 6 5 6 8 9 9 9 8 8 8 8 8 9 9 9 10 10 12 15
50 51 51 55 57 56 49 43 37 12 4 12 23 29 29 28 27 24 21 17 14 11 8 7 7 9 10 10 9 8 7 6 6 6 7 8 10 12 15 16 19 24 35
50 50 55 60 61 60 57 50 46 14 6 13 23 26 27 26 22 18 16 14 11 8 8 9 10 11 9 8 6 5 6 6 6 6 5 5 6 11 18 24 34 43 70
51 56 62 63 62 61 61 55 49 13 10 18 24 26 25 21 18 17 15 11 8 9 10 12 11 9 8 7 7 7 5 3 2 1 1 1 1 2 8 26 43 69 55
58 63 66 64 62 63 63 58 32 14 16 22 25 25 21 19 19 17 14 12 11 11 13 11 9 9 9 9 6 3 4 7 10 12 14 14 13 11 12 53 36 43 49
63 68 69 67 65 67 63 48 20 17 21 24 25 20 20 20 19 16 15 15 15 15 10 10 9 10 9 5 5 9 13 19 21 23 27 35 67 64 41 41 84 94 95
69 72 73 72 70 69 61 28 20 21 23 24 20 20 22 20 19 17 17 19 19 18 14 8 10 8 5 6 10 21 30 32 30 28 30 33 38 46 51 57 42 56 60
75 77 79 78 73 69 37 24 21 22 22 19 21 22 23 21 20 20 22 22 21 19 16 13 8 5 8 15 20 21 22 24 30 39 51 59 59 63 66 66 56 55 88
80 82 82 77 73 46 30 22 22 21 19 22 22 22 21 20 21 24 24 23 21 17 10 6 5 11 18 20 18 20 23 35 51 58 65 73 77 82 84 86 86 78 73
84 83 81 77 62 33 23 21 20 20 22 23 23 22 22 22 25 26 25 22 16 9 8 16 20 21 24 22 23 26 41 49 54 63 66 71 78 83 85 86 88 85 78
83 82 80 69 35 22 21 20 20 20 20 22 22 23 22 25 27 26 21 13 7 10 18 24 32 31 27 25 41 49 52 55 56 69 67 67 72 71 70 73 82 91 97
83 81 57 34 21 22 20 21 20 18 19 20 21 22 24 26 25 20 11 6 18 27 28 34 33 31 39 60 57 59 62 64 49 66 62 60 78 67 77 78 82 92 93
75 53 29 21 22 21 21 18 17 17 20 20 22 22 24 22 17 8 4 14 20 28 41 39 39 62 68 68 67 64 66 67 54 47 62 69 75 70 82 82 94 96 89
43 22 21 23 22 20 16 15 16 18 20 21 21 22 19 13 5 4 11 20 22 32 38 53 73 71 74 74 79 78 74 73 60 52 95 71 77 76 83 100 99 99 88
20 24 24 22 18 16 14 16 17 19 18 19 18 15 8 3 5 18 23 22 29 43 64 74 79 80 77 80 86 82 84 73 42 69 95 78 76 77 92 98 96 95 96
25 24 21 16 13 13 15 18 19 16 15 13 8 3 4 8 18 25 25 34 49 70 66 65 72 78 82 85 92 92 81 73 90 73 94 80 82 91 65 95 97 98 98

GFSMA_700_rhum_006.txt.gz
RH
41 41 41 41 41 40 38 34 33 33 29 31 34 29 18 4 4 8 8 8 8 8 8 8 8 8 7 7 7 7 6 6 6 7 8 9 14 28 43 66 79 85 93
44 43 43 43 41 42 40 35 32 29 34 36 29 14 2 7 9 9 9 10 10 12 12 12 12 12 11 10 10 9 9 9 8 8 7 7 9 12 17 24 32 55 78
51 45 46 44 41 42 38 33 29 38 36 29 15 2 6 8 10 10 11 13 15 16 16 17 15 14 13 12 11 11 11 11 9 8 8 7 6 5 6 7 11 19 30
51 43 46 43 43 41 34 32 40 33 25 11 5 6 8 10 11 12 15 16 17 17 17 16 16 15 15 14 13 13 12 12 11 10 8 8 8 8 7 6 6 6 6
49 46 43 40 43 36 36 38 27 16 7 5 5 7 9 11 14 17 18 18 18 17 17 17 17 16 16 16 16 16 15 14 13 12 11 10 10 10 10 10 9 9 8
43 49 40 46 37 40 37 24 15 9 6 4 5 8 12 17 19 20 20 20 20 21 20 19 19 18 18 17 17 17 17 16 15 14 12 11 11 10 8 7 6 6 6
45 46 46 40 44 38 26 23 23 16 9 6 6 11 16 21 22 22 22 23 23 22 21 20 19 19 18 17 16 16 15 14 13 12 12 10 8 6 6 5 5 4 4
56 45 43 44 40 33 44 47 43 37 22 10 8 14 21 24 26 26 27 25 24 23 22 20 19 18 17 16 15 14 14 12 9 7 5 4 4 4 4 4 4 5 5
54 47 43 44 40 48 46 44 41 39 30 13 7 11 19 24 28 28 28 26 24 23 21 18 16 15 15 14 12 9 6 5 5 6 7 8 8 8 8 8 8 8 7
56 43 48 45 49 48 50 50 45 40 36 18 6 7 16 23 26 25 23 22 22 21 19 17 15 12 9 7 7 8 9 10 11 11 10 8 7 6 6 6 6 6 7
47 51 47 51 50 53 54 54 53 52 49 40 13 8 12 18 23 25 23 23 21 19 18 16 12 9 8 9 10 12 12 11 8 6 5 4 4 4 4 4 5 6 6
51 49 51 52 55 58 57 56 57 57 56 45 27 15 15 22 27 28 25 22 20 17 15 11 9 11 12 14 13 10 8 6 5 4 4 3 3 3 3 5 7 9 17
52 52 52 56 61 62 59 57 58 60 58 43 26 16 22 28 28 25 21 19 17 12 10 11 13 14 13 9 7 6 5 5 4 4 3 3 3 2 2 2 3 5 18
54 54 56 62 65 64 61 59 61 63 56 40 21 21 26 27 23 19 18 15 11 10 12 14 14 11 9 8 7 7 6 5 4 4 4 5 8 9 9 9 8 10 15
56 57 62 66 68 68 65 64 65 65 53 31 21 25 26 21 19 18 14 12 11 13 14 12 10 10 10 10 9 7 6 4 6 11 14 16 16 16 15 15 14 13 13
58 61 66 70 73 72 71 69 69 65 44 23 24 25 20 19 18 13 12 12 12 12 9 9 10 12 12 10 7 6 8 12 14 16 17 19 24 28 30 30 29 25 20
61 64 70 75 78 77 74 72 74 62 28 23 25 20 19 16 13 13 13 13 12 11 8 7 11 12 10 6 6 12 23 23 16 17 28 43 48 47 46 48 52 51 53
64 70 75 80 82 80 78 75 76 35 22 24 20 19 15 14 14 14 14 13 13 16 16 10 10 8 5 7 14 24 24 20 21 36 43 50 50 49 52 58 61 62 62
70 75 80 83 83 81 80 73 42 22 24 21 19 14 14 14 15 15 13 15 18 16 14 9 5 4 8 14 23 25 21 28 46 46 52 60 55 57 57 64 70 70 70
77 81 84 84 84 84 67 50 22 24 22 17 14 14 15 15 14 13 16 17 15 10 5 4 9 12 17 26 29 27 42 47 49 55 59 55 49 49 55 67 67 67 69
83 87 85 86 84 59 44 22 25 22 16 13 14 15 15 13 14 15 14 11 5 3 6 19 24 22 26 30 42 56 52 51 49 62 57 37 39 55 66 70 71 72 74
89 89 88 81 51 34 23 25 21 14 13 13 14 14 12 12 12 8 3 3 4 11 22 26 26 33 41 62 62 59 63 55 43 61 59 29 69 61 75 75 83 75 74
93 87 71 46 25 25 25 19 14 12 12 14 12 11 11 7 2 2 2 5 13 22 29 31 40 64 71 71 73 64 64 67 63 60 52 47 71 67 80 97 84 81 87
82 54 37 23 27 24 17 13 11 13 13 10 10 8 2 1 3 5 7 14 21 26 39 61 78 77 80 82 84 78 73 67 65 68 90 60 69 70 84 92 92 98 100
43 26 26 27 22 15 12 11 13 11 9 9 3 1 4 6 6 9 15 21 23 42 70 75 78 82 82 85 87 80 78 82 71 70 95 69 69 69 80 96 92 92 97
24 28 25 19 14 12 12 12 10 8 8 1 2 6 7 7 10 17 23 26 39 72 70 69 75 84 86 84 90 96 95 91 90 70 96 72 72 81 56 78 88 87 79

GFSMA_700_rhum_009.txt.gz
RH
46 45 42 40 40 40 39 39 36 32 32 28 26 32 30 22 7 5 8 8 9 9 10 11 12 12 12 12 12 12 11 9 9 8 8 7 7 6 7 10 15 26 40
48 51 51 43 42 42 39 38 34 32 27 30 33 30 23 6 5 8 9 10 11 13 15 16 17 17 16 16 15 14 14 13 12 11 11 10 9 8 7 7 8 10 13
49 54 53 46 41 42 36 35 33 28 35 32 25 20 7 5 8 9 10 12 15 16 17 16 16 16 16 15 15 15 15 15 15 14 13 12 11 10 8 7 6 6 6
53 56 53 47 42 39 36 34 30 36 27 17 10 6 5 7 9 10 13 16 17 17 17 17 18 18 18 17 17 16 16 16 16 16 16 15 14 12 11 10 9 8 7
52 50 50 43 42 37 36 32 36 24 16 10 6 6 7 9 11 14 18 18 18 19 20 20 21 20 19 18 17 17 17 17 17 17 17 17 16 15 15 13 12 11 10
49 48 45 42 41 38 34 38 27 29 31 24 12 6 7 10 14 18 19 20 21 22 23 23 22 21 19 18 17 17 17 16 17 16 16 16 15 14 13 12 12 10 9
43 44 44 48 41 37 41 32 36 34 33 34 30 16 9 11 16 20 24 25 26 27 26 25 23 21 19 18 17 17 16 16 15 15 15 14 13 12 10 8 7 5 4
47 45 57 51 42 44 37 42 39 38 34 32 31 20 8 9 15 22 25 28 28 28 26 24 23 21 19 18 17 16 15 14 14 12 11 8 7 5 5 5 5 5 6
49 62 80 55 46 41 45 46 48 48 46 45 42 34 17 9 9 13 18 22 23 24 24 24 22 20 18 17 15 13 12 10 8 7 8 8 9 10 11 11 11 10 10
84 99 75 49 48 48 47 52 53 53 53 53 51 50 43 32 20 17 16 19 22 24 24 21 20 17 14 12 10 10 10 12 13 14 13 13 11 9 8 7 6 5 5
99 99 70 52 48 50 52 56 56 54 54 55 56 55 50 37 19 17 19 23 24 22 20 19 17 13 11 11 12 14 14 13 10 8 7 6 5 4 4 4 3 3 3
99 86 56 54 53 51 57 60 57 54 55 57 60 60 55 33 20 24 25 24 22 20 18 14 11 12 14 15 13 10 8 7 6 5 5 4 4 3 3 3 3 3 3
73 66 54 54 55 55 61 62 58 57 57 59 63 64 53 25 23 26 24 21 19 16 12 12 14 15 12 9 7 6 5 5 4 4 4 4 4 3 3 3 3 4 6
60 54 56 58 56 60 65 63 61 61 62 63 67 65 37 23 26 24 21 18 13 11 13 15 13 10 7 5 4 5 4 4 4 4 4 3 3 3 4 5 7 8 10
52 56 59 60 60 63 67 67 66 65 67 68 70 55 24 25 24 20 16 12 12 14 15 11 8 6 6 7 7 6 5 4 4 4 5 7 9 9 10 12 14 18 20
55 58 62 62 63 67 70 71 72 72 72 70 69 28 25 24 20 15 12 12 13 13 9 7 5 7 8 8 7 5 3 6 9 14 17 14 14 20 31 36 34 33 34
58 61 62 63 65 70 74 77 78 76 75 72 40 24 24 20 14 12 13 13 11 7 4 4 5 6 6 4 3 4 11 15 17 17 16 23 39 41 42 46 44 44 41
61 63 63 63 68 74 79 81 81 81 70 48 24 25 20 13 12 12 12 9 5 6 6 3 2 2 2 3 8 15 17 20 21 31 43 44 49 47 50 49 50 49 47
63 64 64 70 76 84 85 84 85 63 47 24 25 19 12 12 13 11 7 6 6 4 2 2 2 2 6 13 16 19 24 25 47 46 50 56 51 52 50 42 33 36 48
64 65 70 76 85 88 87 86 62 40 24 25 18 12 12 13 10 6 6 4 2 2 2 3 4 10 15 17 26 31 42 53 48 53 56 57 53 55 36 47 63 63 62
66 70 76 83 88 91 86 57 34 25 25 16 12 12 12 9 6 5 2 2 3 4 5 9 14 16 17 28 48 60 56 53 50 60 62 49 60 44 60 68 69 66 67
73 76 82 89 95 86 50 28 27 24 15 12 12 12 8 7 3 2 5 6 6 7 11 17 18 21 41 64 63 60 63 62 51 58 69 47 72 49 65 70 75 74 77
78 84 92 96 86 47 26 28 21 14 12 13 11 7 6 2 3 6 6 7 8 11 20 23 30 62 69 70 70 66 67 71 65 64 80 56 66 53 68 74 88 85 94
87 95 97 69 38 27 27 18 14 12 13 10 7 6 2 5 7 7 7 7 9 17 25 44 71 72 74 76 80 80 76 70 63 71 90 68 67 62 61 74 93 95 100
97 93 52 29 28 24 16 13 13 12 9 8 6 2 5 7 7 7 8 10 16 24 48 73 72 76 80 84 88 84 78 76 62 64 86 84 66 58 56 67 92 99 88
65 43 28 28 19 15 14 13 11 9 8 6 2 5 7 8 7 8 12 19 23 48 66 67 70 76 79 80 84 87 92 86 84 63 87 76 68 76 45 53 71 75 78

GFSMA_700_rhum_012.txt.gz
RH
46 46 47 49 50 45 38 36 35 33 32 30 28 25 29 28 26 20 8 6 8 9 10 12 14 16 17 17 16 16 15 15 14 13 12 11 10 10 9 8 7 7 8
45 47 49 52 52 47 42 37 36 33 31 29 27 30 26 23 17 9 4 8 9 11 13 16 17 16 15 15 14 15 14 14 15 15 15 15 14 13 12 11 10 9 8
48 52 52 53 53 49 43 38 34 31 30 30 30 23 14 9 7 6 7 9 11 14 17 16 16 16 17 18 18 18 17 16 16 15 15 15 15 16 16 15 13 11 10
52 52 52 52 52 48 42 37 34 31 31 30 22 14 8 6 7 8 10 11 15 18 18 17 18 19 21 21 20 19 18 16 15 14 14 14 15 15 16 16 16 15 12
55 55 52 51 50 46 41 38 33 32 32 29 28 26 14 7 7 9 12 16 19 19 19 19 22 23 23 23 22 20 18 16 15 14 14 14 15 15 15 16 15 16 16
60 55 49 44 46 46 42 37 33 34 33 31 28 26 28 22 11 9 12 15 19 23 24 25 26 27 26 24 22 20 18 17 16 16 16 15 15 15 15 15 14 14 14
62 52 44 41 46 48 45 37 37 36 35 36 35 33 30 24 18 12 11 13 17 22 26 28 27 26 24 22 20 18 17 17 17 16 15 14 14 13 13 12 11 11 10
60 54 48 44 48 53 44 40 39 39 42 44 45 46 46 40 36 26 16 13 12 12 16 18 20 22 22 20 19 18 18 17 16 14 12 11 10 9 8 8 8 8 7
62 56 53 49 56 61 44 43 43 46 49 50 49 49 50 50 49 42 36 26 20 19 21 23 24 22 21 19 18 17 14 13 11 10 10 11 12 13 13 13 13 13 12
67 60 60 55 99 63 48 46 47 53 53 51 50 50 50 53 55 52 40 25 20 22 23 22 21 20 18 16 12 11 12 14 14 14 13 11 9 8 8 7 7 7 6
64 60 63 96 100 59 50 49 52 57 56 53 52 51 51 53 55 55 45 26 22 23 22 20 19 16 12 12 14 15 13 10 8 7 6 6 5 5 4 4 4 4 4
64 68 74 99 100 57 52 51 56 60 58 55 54 55 56 56 59 54 33 23 22 21 20 16 12 12 14 15 14 11 9 7 6 6 5 5 4 4 3 3 2 2 2
70 77 80 99 89 56 54 53 59 63 61 59 58 59 59 60 62 40 24 24 22 19 14 12 13 15 14 11 8 6 6 6 5 4 4 3 2 2 2 2 2 3 4
82 67 100 98 74 57 57 56 62 64 63 63 63 63 63 65 56 25 25 23 18 12 12 15 15 12 9 6 5 5 5 4 3 2 2 2 2 3 4 4 6 7 8
81 99 86 89 58 59 60 60 64 66 66 66 66 67 66 65 30 25 23 17 12 13 16 15 10 7 5 5 4 3 3 2 2 2 3 5 7 8 9 9 9 10 12
88 81 71 59 59 62 62 62 65 68 70 70 70 70 68 40 26 24 16 12 13 14 13 9 6 5 4 4 3 2 2 3 5 8 10 13 13 18 25 29 31 33 33
94 61 58 60 62 65 64 65 71 72 72 74 75 68 48 26 24 15 12 14 13 9 6 5 4 4 3 3 3 4 6 10 11 12 16 20 41 41 38 41 46 40 41
60 59 62 63 66 65 65 69 74 77 76 77 70 52 26 24 14 13 14 12 7 5 4 4 4 4 4 4 6 10 13 13 16 30 43 47 48 49 51 49 43 43 39
58 64 66 67 69 66 70 74 80 80 82 72 51 27 24 14 13 14 11 6 5 3 4 4 4 5 6 8 13 15 17 29 47 49 50 58 54 52 52 49 47 37 30
68 70 67 70 69 71 76 81 83 87 74 47 27 22 14 14 14 10 6 5 3 5 5 5 5 7 10 15 21 36 45 49 47 50 54 61 52 57 55 55 48 48 52
79 71 69 71 76 78 83 88 93 76 44 28 19 14 15 13 9 7 4 4 5 5 5 6 8 10 16 30 58 57 51 50 50 56 53 53 55 53 58 61 64 66 63
69 68 80 92 80 87 96 98 72 35 28 17 14 15 12 8 7 4 4 5 6 6 7 10 14 19 38 63 64 63 58 60 52 61 57 49 66 59 62 63 65 70 63
75 92 94 86 87 98 98 59 29 25 16 15 15 12 8 7 5 4 5 6 7 8 12 18 23 50 61 66 68 68 65 64 60 64 71 55 65 56 61 62 72 80 74
96 87 88 95 98 91 43 28 20 16 16 14 11 9 7 6 5 5 6 7 7 9 18 28 56 64 69 72 77 75 70 69 62 66 75 78 59 51 54 58 66 81 87
87 89 98 97 67 31 26 17 16 17 13 10 9 8 6 5 5 7 9 8 8 17 30 62 68 72 76 76 79 77 77 73 65 60 73 94 65 53 44 47 61 72 90
98 97 75 37 29 20 17 18 16 13 10 9 8 6 5 5 8 10 10 9 14 30 57 61 68 71 74 75 80 85 82 76 77 59 86 87 73 83 40 44 53 66 70

GFSMA_700_rhum_015.txt.gz
RH
44 44 46 47 50 50 49 47 43 37 32 30 28 27 27 29 26 22 19 11 6 7 9 10 12 14 17 17 16 15 15 15 15 14 14 14 15 14 13 13 12 11 9
44 45 46 46 50 51 51 48 43 38 34 30 29 28 29 24 16 11 9 6 6 8 10 12 15 17 17 16 16 17 18 18 17 17 16 15 15 15 15 15 14 14 13
48 48 47 50 51 52 50 48 44 38 34 30 29 30 25 19 11 7 7 8 9 10 12 15 17 18 17 18 20 20 20 20 19 18 16 16 15 14 14 14 15 15 15
50 52 50 52 51 52 50 49 44 39 34 30 30 31 29 25 17 7 8 10 12 14 17 19 19 19 20 21 23 23 23 22 21 19 17 16 15 14 14 14 14 14 15
48 48 52 57 55 50 46 48 44 40 34 32 33 32 29 25 25 22 12 9 12 15 17 20 22 23 24 26 26 26 25 24 22 19 17 16 15 14 14 14 14 14 14
57 56 61 60 54 46 45 49 46 40 35 35 35 35 34 33 32 28 22 17 12 12 15 20 22 24 25 25 25 24 22 21 19 18 16 15 14 15 15 15 15 15 14
59 63 64 62 55 48 46 50 49 40 38 38 39 41 42 43 42 42 42 39 34 27 18 13 13 14 15 15 16 17 18 18 17 17 17 16 16 15 15 14 12 11 11
49 54 65 63 56 49 48 57 50 42 41 43 45 47 46 46 46 45 46 48 45 39 31 23 20 20 20 20 20 20 19 18 18 16 15 14 13 12 11 11 10 10 10
49 62 70 67 58 57 52 66 49 44 44 47 49 49 48 47 47 49 49 50 49 43 33 25 22 22 21 20 19 19 17 15 13 12 12 13 13 14 14 13 13 12 12
59 69 74 69 71 69 66 87 50 47 46 50 52 52 50 50 51 51 51 52 50 42 28 23 22 21 20 19 16 13 12 13 14 15 14 12 11 9 8 8 8 7 7
66 75 78 73 88 79 84 91 52 49 49 54 55 53 51 51 53 53 52 55 50 30 23 22 21 19 16 12 12 14 16 14 11 9 8 7 7 6 6 6 6 5 5
72 80 77 75 89 92 98 96 57 52 53 58 59 56 55 56 56 57 54 53 49 26 22 21 16 12 12 14 16 14 13 12 11 10 8 7 6 5 5 4 3 3 2
70 78 78 89 100 96 88 95 58 55 54 60 61 60 60 61 60 60 58 56 34 22 21 15 12 14 16 15 12 10 9 8 7 6 5 4 3 2 2 2 2 2 2
78 83 89 98 81 94 96 89 60 58 57 62 63 64 65 65 64 63 62 41 24 22 15 13 16 16 14 11 8 7 7 6 5 4 3 2 2 2 3 4 4 6 6
80 86 100 99 77 100 98 93 62 63 61 63 67 69 69 68 70 65 51 26 23 15 14 17 17 14 11 8 7 6 5 3 2 2 3 4 5 7 7 8 8 10 13
81 86 100 93 99 99 100 70 65 65 65 68 69 71 71 73 68 59 28 22 14 15 18 16 12 9 8 6 5 4 2 2 3 4 6 8 9 11 14 15 21 31 36
80 99 90 100 100 96 95 65 69 69 68 72 72 73 75 74 62 30 22 15 16 16 14 11 8 6 6 4 3 3 3 4 5 9 11 19 30 37 37 39 39 41 41
92 94 98 100 98 100 76 68 74 69 73 76 76 78 81 63 31 21 15 16 15 11 8 8 6 5 4 3 3 4 6 9 12 28 42 43 43 40 47 47 45 43 43
86 100 100 97 100 98 72 73 73 73 78 78 79 86 65 31 20 15 16 14 9 7 6 6 5 4 4 4 5 7 11 18 42 47 46 49 46 49 53 51 49 46 42
99 97 100 100 100 94 73 86 80 87 82 83 92 70 30 19 16 16 13 9 7 6 6 5 4 4 5 7 10 15 29 45 42 46 46 54 50 56 55 54 55 54 55
98 98 100 99 98 73 80 93 97 86 87 97 67 28 17 16 15 11 9 8 7 5 4 4 5 6 7 13 29 44 45 42 42 48 46 49 48 52 52 57 62 66 68
99 100 100 98 72 74 94 98 90 90 98 52 26 16 16 13 10 8 7 6 5 4 5 7 7 8 17 45 50 49 48 45 40 51 50 47 57 51 50 55 64 70 70
100 99 84 71 84 98 96 92 96 95 30 21 17 16 13 10 8 7 5 4 4 6 8 8 11 24 48 55 51 51 51 53 55 61 61 44 60 53 53 52 64 67 68
98 96 94 95 96 88 95 99 61 28 18 17 15 12 10 8 6 4 4 4 6 8 10 15 32 54 58 57 60 61 60 56 58 65 72 51 59 50 52 52 64 73 78
98 99 91 86 92 99 80 30 21 17 18 15 12 9 8 5 4 4 5 7 9 10 17 42 59 62 64 67 68 62 67 60 55 59 74 68 62 56 51 50 62 69 73
92 96 100 99 80 32 26 18 19 16 14 11 9 7 4 4 4 6 7 9 9 15 41 56 60 65 67 68 72 78 78 73 75 59 88 72 71 76 49 47 50 63 70

GFSMA_700_rhum_018.txt.gz
RH
44 44 44 46 47 47 50 50 50 47 44 39 34 30 28 28 27 19 12 11 9 6 7 8 10 11 13 16 17 17 16 15 16 16 16 15 15 15 14 14 14 13 12
45 44 44 46 47 50 51 50 50 48 45 40 35 30 29 29 26 17 9 7 7 7 8 10 11 13 16 17 17 16 18 19 19 19 19 18 17 17 16 15 15 15 15
48 46 46 47 49 53 51 51 51 50 46 41 36 31 30 31 29 24 13 7 8 10 10 12 14 17 18 18 18 18 20 21 22 22 22 20 19 17 16 14 14 14 14
50 50 53 53 53 52 54 54 50 47 46 42 37 32 33 32 28 26 23 14 9 11 14 17 19 20 20 20 21 21 22 23 24 24 24 23 21 19 17 16 14 14 14
50 49 49 51 55 59 57 52 48 48 49 44 36 34 35 34 34 33 30 24 19 15 12 13 16 20 22 22 24 24 25 24 23 23 23 22 20 19 17 16 15 14 14
58 59 58 57 59 63 60 53 49 52 52 44 37 37 38 40 42 42 42 42 42 42 39 34 28 23 18 15 14 14 14 14 14 14 15 14 14 14 14 14 14 14 15
56 61 61 63 67 66 62 56 53 56 56 44 40 41 43 45 44 44 44 44 43 43 45 45 42 35 29 25 22 20 19 18 18 17 17 16 16 15 15 16 15 15 15
59 55 55 61 67 68 65 58 57 64 56 45 43 44 46 47 48 46 46 46 46 46 45 44 44 41 35 27 24 22 20 19 18 18 17 16 16 14 14 13 12 12 12
56 52 54 64 72 72 68 64 64 74 53 48 48 49 50 50 48 47 46 48 49 48 48 47 43 37 28 22 20 19 19 18 16 14 13 12 13 14 14 14 13 12 12
61 56 54 62 78 78 71 74 73 90 56 51 52 53 54 54 52 50 51 53 54 53 53 49 40 27 21 20 20 18 15 12 12 14 15 15 14 13 12 11 11 11 11
66 58 56 68 78 82 80 99 84 97 66 55 54 57 58 57 54 54 55 57 56 57 55 46 28 23 21 18 14 12 13 15 16 15 14 13 12 12 10 10 8 8 7
65 62 60 69 82 91 89 99 97 93 86 58 56 57 61 60 58 58 59 59 58 58 57 32 24 21 16 13 14 16 16 16 15 14 13 10 9 8 7 6 4 4 3
66 62 64 71 84 93 88 98 97 93 94 65 59 58 63 64 63 64 63 62 59 57 54 27 21 15 14 16 17 16 15 14 12 10 9 8 7 6 4 3 2 2 2
73 65 75 84 86 93 98 100 87 99 98 68 62 61 64 65 68 66 64 64 63 60 38 23 15 15 17 17 16 13 11 9 8 7 6 4 3 2 2 2 2 3 3
76 65 78 91 94 96 98 98 77 100 96 72 65 66 65 70 70 68 68 68 67 50 24 16 16 18 17 14 12 10 8 7 6 4 3 2 2 2 3 4 5 6 6
75 68 83 90 99 100 96 95 95 100 90 69 71 70 68 70 74 73 73 73 53 25 17 17 18 16 13 10 8 7 6 4 3 2 2 3 4 6 8 9 14 24 28
72 77 82 92 97 95 100 99 100 98 91 69 74 72 73 80 78 76 80 58 26 17 18 19 15 11 9 7 6 4 3 3 3 4 5 7 11 22 28 33 34 34 35
77 80 80 98 90 100 98 98 100 97 80 70 75 74 85 87 81 84 63 27 17 18 18 15 11 8 6 5 3 3 3 4 5 7 12 29 37 37 37 38 38 39 40
79 77 86 97 100 100 100 100 100 99 73 77 83 84 94 87 89 73 26 17 18 15 12 9 8 5 3 3 3 4 4 5 12 32 41 40 42 42 43 43 44 44 43
75 86 97 100 100 99 99 100 100 94 76 84 90 98 92 94 79 25 17 18 15 11 8 6 4 3 3 4 4 4 7 25 35 40 41 39 44 42 43 46 50 47 46
99 100 97 100 100 100 100 100 94 76 78 95 98 97 99 65 22 18 18 14 10 8 5 3 3 3 4 5 5 14 33 34 32 40 40 39 45 45 52 54 54 54 57
100 99 100 100 100 100 98 96 86 79 98 99 98 99 37 18 18 16 13 9 6 4 3 4 4 5 6 6 23 38 34 32 27 40 36 36 44 39 49 48 50 56 58
100 100 100 100 100 98 96 92 98 99 98 100 81 25 17 18 16 12 8 5 3 4 5 6 6 7 8 32 41 35 39 38 34 43 50 41 53 44 51 54 58 61 66
100 100 98 99 96 99 99 99 99 100 94 37 20 18 18 15 10 7 5 3 4 5 5 6 7 12 36 44 41 42 41 40 43 55 73 52 57 52 56 60 67 66 69
99 99 94 98 98 98 99 100 91 35 24 18 19 17 13 9 6 4 3 4 5 6 7 9 18 47 50 50 55 46 51 53 50 54 76 73 61 57 55 53 60 66 70
96 97 96 90 100 99 75 32 26 19 19 18 16 11 8 6 4 4 4 5 5 7 9 22 52 55 57 58 57 62 68 66 68 52 77 68 62 72 45 48 52 64 68

GFSMA_700_rhum_021.txt.gz
RH
46 45 45 46 48 48 48 50 50 51 50 49 46 43 39 32 29 28 23 14 8 7 7 7 8 9 10 12 14 17 17 17 16 16 17 17 17 16 16 15 15 14 14
48 46 46 46 49 49 49 52 53 52 51 50 46 42 38 32 31 31 28 20 10 8 9 9 10 10 11 14 16 18 18 17 18 20 20 20 20 20 18 17 16 16 15
52 51 48 46 49 51 52 55 55 54 52 48 46 42 38 33 32 31 28 24 20 12 10 11 14 16 17 18 19 19 19 20 21 22 22 23 23 23 22 21 19 17 16
53 53 52 51 53 55 58 57 57 55 52 50 49 46 38 34 34 34 32 29 26 23 20 17 14 13 14 16 18 20 21 22 23 24 26 26 25 25 24 23 22 20 18
52 54 57 58 56 57 58 60 60 57 52 53 52 47 38 37 38 40 41 41 41 41 42 42 41 40 37 33 28 24 21 18 16 15 15 14 14 14 14 14 14 14 14
55 55 54 55 57 60 62 65 65 60 56 57 56 47 40 41 43 44 44 44 43 43 43 43 42 42 42 42 41 38 32 27 24 22 20 19 18 17 16 15 15 15 14
59 59 61 64 63 65 65 69 66 62 59 61 58 47 43 46 48 47 47 46 44 44 44 45 46 45 44 43 41 38 32 27 24 21 20 19 18 17 17 16 16 16 15
59 57 56 61 63 62 62 70 69 65 62 67 60 49 47 50 51 50 49 47 46 48 48 48 47 47 46 44 40 31 23 20 20 19 18 17 16 16 14 14 13 13 13
60 58 54 54 57 58 68 75 73 69 68 74 61 52 52 53 54 55 53 52 51 52 53 52 51 50 49 46 35 24 20 20 18 16 14 13 12 13 14 14 14 13 13
67 65 60 59 57 58 75 83 75 75 73 83 69 55 55 58 59 59 58 56 57 59 60 59 56 54 52 44 26 21 19 16 14 13 14 15 15 15 14 14 14 14 14
73 73 70 66 61 62 89 88 86 81 91 85 90 62 57 60 63 65 63 62 62 65 64 63 61 59 52 32 22 18 15 14 15 16 16 16 16 15 14 13 11 10 9
78 74 71 72 68 67 84 100 100 92 99 92 90 85 65 60 63 67 66 65 66 66 66 66 65 60 42 24 18 15 15 16 17 18 17 15 13 11 10 9 8 7 6
78 76 71 71 70 69 73 100 98 100 92 98 98 92 84 64 64 67 67 66 65 64 65 65 64 57 30 18 16 17 18 19 17 15 12 10 9 8 6 5 4 3 3
83 80 78 69 76 72 80 100 99 100 100 99 100 100 92 69 68 68 68 67 66 66 64 65 63 43 20 16 18 20 19 15 12 10 8 6 4 3 2 2 2 2 2
96 85 81 74 81 78 86 97 86 100 97 100 96 99 97 79 72 71 71 70 70 68 64 64 54 23 17 19 20 17 13 10 8 5 3 2 2 2 2 2 3 4 5
91 90 85 80 86 80 82 94 90 100 99 99 100 100 97 76 71 75 75 75 69 73 68 62 29 18 20 19 15 11 9 6 3 2 2 2 2 2 4 6 8 13 21
77 93 90 95 94 84 87 93 94 100 100 100 100 100 90 74 76 77 78 76 79 79 74 37 18 20 19 13 10 7 4 2 2 2 3 3 4 9 16 22 26 29 30
74 88 93 86 83 86 90 94 100 96 100 100 100 100 94 88 78 86 85 91 85 86 37 19 21 18 12 9 6 3 2 3 3 4 5 10 22 28 27 26 26 26 27
95 99 96 83 95 98 93 95 100 99 99 98 100 98 96 80 93 97 98 92 88 30 19 21 17 12 8 4 3 3 3 4 4 8 25 31 31 28 26 30 30 30 32
97 100 93 92 99 96 100 100 100 100 100 100 99 94 87 92 99 99 98 78 22 19 19 15 10 7 3 3 3 3 4 5 12 29 31 28 29 32 36 36 32 34 38
95 100 81 84 90 99 100 100 99 99 99 100 96 91 94 98 98 96 42 19 20 18 13 9 6 3 3 3 4 5 5 15 25 26 30 28 30 36 43 45 46 46 45
96 100 89 98 99 100 100 100 100 99 98 97 96 98 98 98 76 23 18 19 16 12 8 5 3 3 4 5 5 6 21 25 18 28 31 30 43 45 48 50 54 55 60
100 98 83 100 100 100 100 99 99 98 97 95 99 96 88 30 19 19 17 15 10 8 5 4 4 5 5 6 7 22 30 28 30 33 47 31 50 46 54 54 61 66 65
100 99 100 100 99 99 98 98 99 92 91 93 88 32 22 19 18 17 13 10 7 5 4 4 6 7 8 10 30 29 27 28 32 51 64 42 57 52 53 52 59 67 70
100 100 99 98 98 98 99 99 95 95 86 36 24 19 19 18 16 11 9 7 5 5 5 6 7 8 15 38 38 33 39 40 46 50 61 71 61 54 54 47 52 58 69
99 98 98 96 96 98 95 84 48 28 22 20 20 18 16 13 11 8 7 6 5 5 6 8 11 22 47 45 48 49 52 57 61 52 68 75 68 70 51 45 44 56 69

GFSMA_700_rhum_024.txt.gz
RH
48 47 47 46 47 49 49 49 51 53 53 52 52 50 46 41 37 32 31 30 26 18 11 8 8 8 9 10 11 13 16 18 18 17 17 18 20 20 19 18 18 17 16
50 50 49 48 46 49 50 51 52 55 55 53 52 50 46 41 38 33 32 31 27 24 19 12 11 11 13 14 15 17 18 19 19 19 20 21 22 22 22 22 22 20 19
54 53 52 51 48 48 50 53 54 58 56 56 53 51 46 43 38 34 34 33 32 30 28 27 25 23 20 17 15 15 16 18 20 21 22 23 23 24 24 25 25 24 23
50 53 53 53 52 50 51 55 59 58 59 57 56 51 48 45 38 36 37 39 39 39 39 39 39 39 39 40 39 38 37 35 31 24 19 16 15 14 15 16 17 18 19
53 54 55 57 56 55 58 60 61 61 62 62 58 53 50 46 39 39 42 43 43 43 42 42 42 43 43 43 42 40 40 39 39 38 34 30 25 22 21 20 19 18 17
54 56 57 56 57 58 58 60 61 65 66 63 59 55 53 48 41 43 46 46 45 45 43 43 44 45 46 45 45 44 42 40 38 34 30 26 24 22 21 20 19 18 18
55 59 59 58 57 59 63 64 65 68 64 64 62 58 56 49 44 47 49 49 48 46 46 46 48 49 49 48 48 47 45 42 36 27 22 19 18 18 17 17 16 16 15
60 63 67 62 66 63 65 65 69 65 66 68 64 63 60 53 49 49 52 52 52 50 49 50 51 52 52 51 50 49 47 42 28 21 19 18 17 16 14 13 13 13 13
57 59 72 68 64 61 64 64 62 65 74 73 71 67 65 56 52 52 54 55 55 54 53 53 55 55 54 53 52 51 48 38 23 19 17 15 14 14 14 15 15 15 15
66 55 67 72 69 63 61 61 66 71 82 82 78 76 76 64 56 55 56 58 60 60 58 58 58 58 57 56 54 53 50 31 20 17 15 15 16 16 16 17 17 17 16
74 76 68 72 71 72 68 68 74 97 91 95 84 88 84 82 68 58 57 60 64 65 64 63 62 61 61 60 58 57 47 25 18 16 16 18 19 19 18 15 12 11 10
71 74 76 75 72 76 76 73 77 82 99 99 98 91 93 87 82 78 65 61 63 64 66 67 66 65 65 64 61 56 35 18 17 18 20 20 18 14 12 10 8 6 4
79 76 77 79 80 78 79 83 80 78 97 97 90 100 94 99 96 95 78 69 68 66 69 71 70 69 69 66 60 43 20 18 20 20 18 14 12 9 6 4 3 3 2
71 77 83 95 91 82 80 79 83 84 79 100 97 100 100 100 100 100 99 78 72 69 69 71 71 70 73 69 60 28 18 20 21 16 12 9 6 4 3 2 2 2 2
74 74 83 96 94 89 86 81 84 90 90 82 100 100 99 100 97 100 100 92 83 74 71 74 76 79 78 70 35 19 21 21 16 12 8 4 3 3 2 2 2 2 2
70 70 81 87 92 88 88 87 96 95 98 98 98 100 98 99 100 100 99 97 80 77 74 79 85 83 77 40 19 21 18 14 10 6 3 3 2 2 2 2 2 6 12
58 68 73 90 92 92 94 96 100 99 100 99 94 100 100 99 100 99 100 96 85 84 85 86 87 83 48 19 20 16 12 8 4 3 3 2 2 2 3 8 16 20 20
34 57 71 80 81 89 100 98 99 100 100 100 100 99 100 100 99 99 93 95 86 90 91 90 83 41 19 19 15 11 7 4 3 3 3 3 3 8 20 23 20 18 16
44 46 66 77 79 82 98 100 98 97 100 100 99 100 98 100 98 99 98 96 94 98 92 80 27 20 20 14 10 7 4 3 3 3 4 5 17 25 22 21 22 17 17
42 59 64 70 79 99 100 99 83 100 99 100 100 100 99 99 99 97 96 97 98 91 47 20 20 18 13 9 6 4 3 3 3 4 10 23 22 22 27 29 24 28 33
49 65 73 90 94 100 99 94 100 100 99 100 100 99 99 98 98 97 98 96 81 27 19 19 16 11 8 5 4 4 4 4 4 13 22 22 24 28 40 42 43 47 47
62 76 90 99 100 99 98 100 100 100 100 100 100 98 97 96 98 98 92 37 20 20 18 14 10 7 6 4 4 4 4 5 7 23 20 22 31 38 43 44 48 52 54
95 95 96 100 100 98 100 100 100 100 99 97 98 98 97 97 97 64 20 19 18 16 12 10 7 6 5 4 4 5 6 15 25 29 29 22 41 42 48 52 57 61 63
99 98 99 100 100 100 99 97 98 98 97 98 97 98 89 41 21 20 19 17 15 12 8 7 6 5 5 6 7 8 15 25 24 35 49 30 53 48 51 53 56 58 62
99 100 99 99 99 98 98 100 100 96 95 92 48 24 22 22 20 19 18 14 11 8 8 7 6 6 7 9 13 25 35 34 33 40 55 54 60 52 51 48 53 55 58
99 99 98 99 97 97 98 98 95 68 28 23 25 23 22 20 16 14 12 10 8 8 7 7 9 11 12 19 44 44 45 45 48 42 66 68 63 68 49 38 42 54 65

GFSMA_700_rhum_027.txt.gz
RH
49 48 47 47 47 46 48 48 49 50 52 54 53 53 51 50 43 38 35 32 31 29 24 20 15 11 11 12 12 13 14 16 18 18 18 18 18 19 20 20 20 20 19
51 50 49 49 48 47 47 48 50 50 52 55 55 55 53 51 43 39 35 33 33 32 30 29 28 27 26 23 19 16 16 17 18 19 20 20 20 20 21 21 22 23 23
55 54 52 52 51 49 48 48 50 52 53 56 56 56 56 51 45 40 36 35 36 37 37 37 36 37 37 36 36 36 37 37 37 36 32 27 20 16 16 18 20 23 23
51 48 47 51 54 53 51 51 51 52 55 58 58 60 59 52 47 42 37 37 40 40 40 40 40 40 41 41 41 41 41 40 39 37 37 36 36 35 31 26 24 20 18
49 46 45 53 57 59 58 55 54 57 61 59 61 63 59 54 49 44 39 40 43 43 43 43 42 42 42 44 44 44 43 42 41 39 37 36 34 31 29 28 28 26 24
46 46 51 57 58 60 61 60 60 63 62 62 66 63 57 56 52 47 41 44 45 46 46 45 44 45 46 46 47 46 44 43 43 42 39 36 29 23 20 18 17 17 17
51 50 53 55 58 59 65 65 61 60 63 66 66 59 59 58 56 51 44 46 48 49 49 48 47 48 49 50 50 49 46 45 44 43 41 34 23 18 17 17 16 16 15
62 60 54 56 61 63 63 62 64 68 68 68 62 62 63 62 58 55 48 47 50 51 52 52 51 51 52 52 53 52 50 49 49 48 43 30 20 17 16 15 15 14 14
59 67 64 64 67 69 66 72 70 69 68 67 63 66 69 66 64 60 54 50 51 54 56 57 57 56 55 56 56 56 55 54 54 52 45 28 19 17 16 15 15 15 16
70 69 64 70 74 72 70 72 71 65 64 62 70 73 76 73 72 70 64 58 55 55 58 60 60 60 57 57 57 56 55 54 52 52 42 24 17 17 17 18 18 18 18
70 71 67 62 64 72 72 73 72 68 64 60 70 85 87 84 84 83 76 71 63 57 57 60 61 61 61 61 59 60 60 61 57 54 36 20 18 18 20 20 18 15 13
62 66 71 70 63 83 80 80 84 81 76 72 98 83 92 94 91 86 88 87 80 76 69 62 61 61 63 63 62 63 64 68 61 53 27 19 19 20 20 17 14 12 9
64 61 64 76 69 70 84 94 96 94 93 91 94 88 100 96 97 99 96 99 95 96 89 73 69 69 68 67 66 67 70 69 63 45 21 20 21 19 16 13 9 6 5
68 72 75 76 79 81 83 88 94 94 96 98 93 90 94 100 98 99 100 99 97 100 98 98 79 76 75 73 72 73 74 72 62 26 20 21 18 14 10 7 4 4 4
53 68 75 77 78 80 86 95 99 99 93 92 98 98 95 100 99 100 97 100 99 92 95 97 96 92 80 79 79 78 78 71 41 21 22 20 14 9 5 4 4 3 3
64 70 76 78 77 77 83 96 99 98 98 94 97 99 100 99 96 100 100 99 100 99 100 100 99 98 95 88 88 82 74 41 21 22 19 14 10 6 4 4 4 3 2
46 53 69 75 75 70 78 86 94 100 100 100 100 99 100 98 98 99 100 99 100 99 99 99 99 98 99 97 92 70 28 20 21 17 12 8 5 4 4 3 3 3 4
41 42 40 57 71 73 82 91 99 100 100 100 92 100 100 100 99 100 99 99 99 100 98 96 98 98 97 95 49 21 20 20 15 10 6 4 4 4 3 3 5 9 11
40 34 38 37 51 77 83 95 97 99 100 100 93 100 99 100 99 100 99 100 99 98 97 98 97 98 93 32 19 20 17 12 9 6 4 4 4 4 5 12 16 15 15
37 34 30 37 39 55 75 81 93 96 99 94 99 100 100 100 100 99 99 98 97 97 97 98 95 91 23 18 18 16 12 9 6 4 4 4 4 10 22 21 21 21 21
40 35 33 44 44 63 83 92 89 96 98 100 100 100 100 98 98 98 98 96 96 97 97 96 52 19 18 16 12 9 8 6 5 5 5 7 18 26 34 33 32 36 37
46 50 61 63 61 71 90 97 100 100 99 99 99 99 99 100 99 99 97 97 97 92 22 19 19 17 13 10 8 7 6 6 5 6 9 16 31 34 38 42 46 44 41
66 71 78 84 90 81 97 99 99 100 100 100 98 99 100 98 98 97 95 48 21 20 19 17 14 11 9 8 7 7 6 6 6 14 27 24 43 40 44 48 51 50 54
79 83 99 100 100 99 99 100 99 99 98 94 95 98 96 98 82 40 23 22 20 17 14 11 10 9 8 7 7 7 7 7 13 36 53 30 51 42 40 48 50 57 64
99 99 97 99 98 99 98 99 98 97 100 98 95 82 32 23 23 22 20 18 15 12 10 9 9 8 8 8 9 9 13 33 38 47 60 47 53 35 35 38 47 52 57
98 98 97 98 97 97 98 99 99 87 62 32 24 24 23 21 19 16 15 12 10 9 9 9 10 10 10 11 14 29 47 46 51 47 63 48 44 44 31 37 42 49 58

GFSMA_700_rhum_030.txt.gz
RH
49 48 47 46 46 46 47 47 48 48 49 50 52 53 52 52 52 47 40 36 32 32 30 27 24 22 19 16 14 14 15 15 16 18 19 19 19 19 19 20 21 21 21
52 50 49 48 47 47 47 47 48 48 49 51 52 55 54 54 54 48 42 37 34 34 34 33 34 34 34 35 35 35 35 35 34 33 31 27 22 18 17 18 20 21 22
58 57 53 50 49 48 48 48 48 48 49 51 53 57 56 56 57 50 44 39 35 36 38 38 38 38 38 38 39 40 40 40 40 38 37 35 34 34 34 32 29 24 18
58 56 57 54 54 53 52 52 51 50 50 52 54 59 58 60 59 52 48 41 36 38 40 41 40 40 39 39 40 40 40 40 40 40 39 37 35 34 33 32 32 32 31
53 51 55 52 49 48 51 55 54 54 53 53 57 62 60 63 60 53 50 44 38 40 42 43 43 42 42 42 43 43 43 42 41 40 40 40 37 35 33 30 27 25 23
53 55 56 52 48 45 51 57 59 60 59 57 61 64 62 65 58 53 53 48 42 42 44 45 45 44 44 45 45 46 46 46 44 41 40 40 41 38 32 24 20 18 17
62 63 63 61 57 51 59 62 62 60 62 62 65 63 66 64 54 54 56 53 45 43 45 47 48 48 48 48 48 48 48 49 48 48 47 44 42 42 34 22 18 17 16
56 59 66 63 63 62 60 63 60 63 62 62 64 68 67 60 51 58 60 56 50 46 47 49 51 51 52 51 51 50 50 52 52 50 49 47 44 43 38 25 18 16 16
53 50 55 61 66 67 62 64 65 64 65 69 70 72 68 61 55 64 63 61 57 51 50 51 53 54 56 56 55 54 53 53 54 54 53 50 48 44 40 28 19 17 16
68 69 60 59 62 69 73 66 66 70 70 75 73 70 69 64 64 67 68 66 66 61 56 55 55 56 58 58 58 56 56 56 56 57 58 58 54 48 43 28 19 17 17
61 69 70 72 70 69 70 72 71 72 72 76 74 69 68 72 74 77 76 78 79 77 72 65 60 58 58 58 58 57 60 59 59 58 59 60 58 52 46 29 19 18 19
59 60 61 67 68 72 72 71 65 72 79 80 79 78 71 70 90 88 90 88 82 78 78 81 79 78 74 69 64 62 62 64 63 63 63 64 62 56 48 30 20 19 20
56 67 69 75 75 67 74 79 73 72 86 91 92 95 89 88 99 95 97 94 89 90 85 87 86 90 92 90 79 72 70 70 69 69 70 69 68 60 45 25 20 21 20
38 46 52 66 73 73 74 81 85 85 90 98 98 98 100 97 100 100 100 100 100 94 98 94 93 96 98 95 92 92 78 77 78 75 76 72 68 59 32 21 21 20 15
35 31 38 57 67 73 72 76 84 85 88 96 100 100 100 99 100 100 99 99 96 99 100 100 100 97 97 90 85 91 92 88 88 82 83 76 64 33 21 21 18 14 10
44 45 47 43 60 75 77 78 80 89 93 98 99 100 100 99 100 99 98 99 100 100 100 100 99 99 100 99 97 98 93 94 93 91 82 64 30 22 22 20 15 11 8
52 53 50 59 70 77 85 83 83 84 86 98 100 100 100 99 100 100 89 100 98 99 99 99 99 99 100 99 99 98 98 96 97 84 58 26 21 21 18 14 10 8 7
51 50 48 47 45 52 74 82 81 82 90 99 98 100 86 100 98 94 98 100 100 100 100 99 99 98 100 98 97 95 96 95 96 82 20 20 18 15 10 8 6 6 5
60 51 48 42 40 43 43 58 74 79 79 92 91 99 100 100 100 100 99 100 100 99 99 97 98 98 100 100 97 96 96 94 32 18 15 12 11 9 7 6 5 5 5
72 68 54 49 42 36 40 41 55 74 85 93 99 98 100 100 100 98 100 100 99 97 97 97 97 97 97 98 96 76 26 18 17 14 10 9 8 7 6 5 6 8 12
68 63 61 54 42 39 44 47 50 75 93 96 98 98 100 100 100 99 98 98 98 93 94 94 100 100 93 42 21 18 17 15 13 10 8 7 7 7 8 10 15 21 24
58 55 54 46 44 45 63 64 62 80 98 99 95 99 100 99 98 98 97 92 93 96 100 97 68 22 20 19 16 14 12 10 9 8 8 7 10 13 20 27 35 37 40
58 55 52 54 56 67 80 93 100 96 99 99 99 100 99 99 94 93 92 100 99 97 49 23 20 17 15 13 12 10 9 8 8 8 8 9 28 29 38 45 47 45 42
68 68 76 82 82 94 98 100 96 100 99 97 98 98 89 86 95 100 100 85 37 22 19 17 13 10 9 8 8 8 8 8 9 16 34 30 50 46 48 50 45 45 49
92 93 96 97 97 91 100 100 99 100 98 96 93 88 94 98 91 37 24 22 18 13 8 5 5 6 6 7 8 8 10 15 32 40 60 52 56 47 42 42 44 47 52
96 93 94 98 99 96 97 97 97 97 100 98 95 69 37 24 23 20 15 8 4 3 3 4 5 5 6 7 10 21 33 37 47 50 65 51 52 46 27 36 42 52 57

GFSMA_700_rhum_036.txt.gz
RH
58 56 53 50 48 47 46 46 46 47 47 46 46 47 48 50 50 50 52 52 52 44 39 33 32 32 31 30 30 29 28 28 27 26 26 25 23 22 19 18 18 18 18
55 59 59 55 52 51 49 48 47 47 47 47 48 48 48 49 50 51 51 54 54 50 41 38 32 34 35 35 35 35 35 35 36 36 36 36 36 35 34 33 32 32 31
51 54 56 60 61 58 55 52 50 49 48 48 48 49 49 49 50 51 51 55 56 54 44 42 35 35 37 38 37 37 38 38 38 38 37 36 36 36 36 35 34 33 32
42 44 46 50 55 64 65 62 60 58 53 51 51 51 52 51 51 52 52 55 58 58 48 45 40 36 38 40 40 40 40 40 40 40 39 38 37 36 34 35 34 32 31
39 43 47 51 52 53 59 60 57 56 63 60 58 55 54 54 54 54 54 58 57 60 51 48 46 39 39 41 42 42 42 42 42 42 43 43 40 37 36 37 36 34 33
41 46 51 52 50 49 51 58 58 57 61 60 55 50 53 59 59 58 56 60 61 60 55 51 51 44 41 42 44 44 44 44 45 44 44 44 45 45 44 42 42 40 37
44 41 46 49 54 54 51 52 65 68 66 65 63 58 62 68 66 63 60 61 63 65 59 52 55 51 44 44 45 47 47 47 47 47 46 46 45 46 46 46 46 45 42
46 47 44 46 51 51 53 56 52 64 71 74 70 68 68 68 67 67 65 64 65 68 64 54 59 56 51 47 46 48 48 50 51 51 52 51 51 49 49 49 49 49 48
51 47 44 49 47 58 58 58 64 63 69 76 75 78 71 65 67 73 70 68 70 73 70 60 61 61 58 54 50 50 50 52 53 53 53 53 52 52 51 50 50 51 51
31 36 44 44 51 54 70 71 66 70 74 73 74 70 78 80 76 74 75 76 81 78 75 70 65 65 63 60 58 56 56 56 56 56 55 54 54 55 54 53 52 52 52
16 24 38 43 49 56 65 77 82 79 72 73 72 73 74 77 82 85 85 86 94 81 82 84 78 75 70 69 72 72 70 67 67 68 71 76 76 81 79 73 64 64 60
17 40 38 45 55 55 64 69 71 78 77 74 73 79 84 87 87 96 98 94 96 99 97 95 91 86 81 80 84 86 87 97 84 80 82 82 87 88 83 82 82 85 79
28 34 38 43 54 61 66 70 70 72 75 72 74 72 80 87 95 99 99 99 98 99 96 95 99 100 96 96 100 97 100 100 99 97 89 99 98 99 98 95 91 87 86
32 32 42 32 32 40 50 61 65 69 74 76 78 78 76 78 80 88 100 99 98 100 99 98 100 99 99 99 100 100 99 92 99 100 100 97 100 99 99 89 96 98 94
36 37 37 36 36 36 39 44 50 53 55 60 66 77 84 82 85 85 94 99 99 99 100 100 97 100 100 100 99 100 99 99 100 99 99 100 100 97 94 87 93 92 96
46 45 44 42 41 41 44 46 48 53 57 58 60 65 72 85 92 92 97 99 89 100 100 100 100 99 99 99 99 99 99 98 100 99 99 100 98 93 84 84 90 92 94
38 51 58 56 55 56 56 58 57 55 59 66 86 90 73 75 88 94 99 99 99 100 99 99 100 99 98 99 99 99 98 99 100 100 100 100 94 87 85 85 84 86 86
45 50 58 69 70 67 65 60 57 68 82 68 52 55 72 88 87 97 100 100 100 98 100 94 99 99 98 96 99 99 99 98 98 96 97 91 86 86 86 60 31 24 23
40 48 55 67 73 71 67 67 69 85 83 83 80 49 51 54 80 98 100 100 100 100 92 98 97 99 99 99 99 100 100 99 96 94 95 84 62 30 28 26 21 18 17
42 57 65 69 68 67 71 74 76 80 81 71 62 50 43 50 55 99 99 97 99 99 91 99 100 100 100 98 96 96 95 90 84 54 31 23 18 15 12 9 8 8 8
34 37 50 54 57 58 65 65 68 69 71 60 48 46 58 69 90 76 100 100 100 89 95 100 100 100 95 92 90 84 60 28 20 12 5 4 2 3 4 5 5 6 6
31 34 38 42 42 49 51 54 59 62 57 48 50 63 100 100 93 92 89 81 100 99 100 100 98 94 86 53 23 19 7 2 2 3 3 4 4 5 6 8 12 16 22
33 34 37 36 39 44 50 58 74 75 75 82 84 92 100 100 100 100 100 100 100 100 99 83 43 23 14 6 2 2 3 4 6 8 10 12 13 18 21 28 33 35 35
47 50 62 59 68 75 83 88 93 90 93 94 96 99 96 96 100 99 97 97 93 59 28 21 10 3 2 3 5 8 10 12 16 19 19 22 27 31 34 38 37 36 32
72 77 70 73 80 89 100 93 95 92 97 99 97 100 100 99 100 98 72 32 24 19 9 3 2 3 7 10 13 16 18 21 24 29 28 25 32 29 36 40 39 37 41
71 73 73 71 61 53 59 57 53 56 48 44 45 49 43 27 25 24 20 14 6 2 2 2 5 9 13 17 20 23 25 27 28 31 33 30 36 33 28 38 42 41 42

GFSMA_700_rhum_039.txt.gz
RH
59 58 58 58 55 51 48 45 46 47 47 47 47 47 47 46 45 44 47 51 51 53 53 47 38 35 30 30 31 31 31 31 31 31 31 31 31 30 29 28 25 22 19
50 49 51 55 59 60 56 53 50 48 48 48 48 48 48 48 49 48 46 50 52 54 54 54 42 40 34 33 33 34 34 34 35 35 35 35 36 36 35 35 34 33 32
39 39 39 42 47 54 59 59 59 59 57 54 51 50 49 50 51 51 51 50 53 55 56 56 49 43 39 35 36 37 36 37 37 37 37 36 36 35 34 34 34 34 32
37 35 35 35 40 42 46 52 58 62 62 61 62 60 58 55 56 55 53 52 54 55 59 58 56 45 45 38 38 40 39 39 39 40 39 39 38 38 37 34 32 32 33
41 43 43 39 36 44 45 51 56 55 52 53 60 63 63 59 56 54 52 55 56 56 60 62 62 50 48 44 40 42 42 42 42 42 42 42 42 42 42 40 41 41 39
46 48 46 48 46 46 54 53 52 55 52 56 66 63 61 58 55 52 55 60 61 59 60 66 66 57 51 50 43 43 44 44 44 44 45 45 45 45 46 46 46 46 46
47 43 47 51 53 49 47 49 51 57 56 62 75 72 71 71 66 60 63 66 65 66 62 68 70 65 56 55 50 45 46 47 48 48 49 49 49 49 48 48 47 47 47
40 38 38 42 49 51 54 55 57 58 56 61 67 74 78 78 72 68 66 68 69 70 68 68 72 72 62 60 56 50 48 49 50 51 51 52 53 53 53 53 52 51 50
32 36 33 42 39 46 47 56 64 62 65 64 69 74 75 75 77 74 76 76 74 75 73 72 77 79 72 66 61 54 52 52 52 54 54 55 56 57 56 55 54 53 52
29 33 40 40 43 48 45 47 54 57 61 68 76 74 75 79 81 79 71 76 81 82 84 83 90 89 82 74 68 60 61 57 55 56 58 60 62 61 61 66 72 77 79
18 20 22 23 31 41 52 52 52 55 59 88 92 78 85 86 84 83 82 77 80 87 98 98 100 100 88 87 80 68 63 61 70 66 66 68 70 76 75 82 86 91 86
17 16 16 18 31 45 46 56 65 67 69 99 99 99 99 91 91 89 80 84 91 90 93 100 100 100 100 98 93 81 72 88 98 95 87 86 93 90 91 93 99 100 99
26 28 28 39 32 52 45 38 48 56 64 72 80 94 99 90 98 93 93 87 90 92 99 98 98 100 100 100 100 98 97 96 99 100 100 100 100 99 100 96 100 100 99
36 35 34 33 33 34 34 34 34 36 40 46 54 62 70 95 91 91 96 98 98 98 95 90 99 100 100 100 99 99 100 99 100 99 99 100 100 99 99 100 100 98 95
30 36 41 40 39 40 41 41 40 38 37 41 48 55 60 62 64 70 77 94 98 99 100 95 100 98 99 99 100 99 100 99 99 99 99 99 99 96 99 97 99 99 100
16 19 31 45 50 51 52 51 51 49 48 51 54 58 66 73 85 97 95 93 93 99 91 100 98 100 97 98 100 99 99 99 98 99 99 99 99 99 99 100 99 94 86
32 32 36 40 44 51 56 61 64 65 64 56 55 54 57 65 66 87 99 100 99 100 100 100 100 99 100 98 99 90 96 99 99 100 99 98 99 98 94 96 88 80 76
41 41 42 43 48 51 48 60 72 70 67 65 65 81 72 81 75 59 88 96 99 98 99 99 100 98 99 100 98 99 98 98 100 98 97 95 94 90 87 81 78 70 52
26 30 36 39 37 40 47 57 65 60 57 68 74 81 87 75 72 70 51 79 96 99 98 100 99 97 99 98 99 99 98 97 96 94 89 87 84 72 56 34 25 21 16
24 27 26 25 27 32 40 46 46 49 58 62 69 76 71 60 52 57 79 78 90 90 91 98 94 98 99 98 98 96 90 94 92 77 56 32 20 17 9 4 2 2 2
18 18 21 25 28 32 35 39 41 46 52 58 64 57 58 65 55 85 100 100 100 99 88 99 98 100 98 97 99 93 78 55 26 17 8 3 2 3 3 4 4 4 4
21 21 24 27 27 29 31 35 40 44 44 48 52 55 59 80 73 100 100 100 99 99 100 100 98 95 95 68 26 19 12 4 2 3 4 6 8 9 11 13 13 15 17
29 28 34 50 48 55 62 62 62 59 68 69 65 68 85 99 90 100 98 97 100 98 97 97 62 25 20 12 5 2 3 6 8 10 12 15 16 19 22 25 25 25 26
47 54 57 62 54 62 67 69 72 78 83 86 95 95 99 98 97 98 97 98 97 72 27 22 16 8 3 2 3 7 10 14 16 18 17 22 23 27 30 31 30 31 33
64 69 59 54 41 37 39 38 24 14 15 19 29 48 60 67 68 46 31 24 20 15 10 5 3 2 2 5 10 15 18 21 23 23 22 22 24 27 32 36 36 38 39
45 39 28 22 8 4 3 3 2 2 2 2 2 2 2 2 2 2 2 2 2 2 2 2 2 4 8 13 17 20 22 25 28 30 30 30 31 30 30 36 38 40 42

GFSMA_700_rhum_042.txt.gz
RH
55 61 63 62 62 61 60 55 51 48 47 47 47 48 48 49 49 49 48 48 48 50 53 54 54 52 40 37 33 32 32 32 32 32 32 32 33 33 32 32 32 30 28
53 53 51 49 49 52 58 63 64 63 60 54 52 51 50 50 50 50 50 51 51 51 52 54 57 56 48 41 36 35 35 35 35 35 35 35 34 35 36 36 35 34 34
42 41 38 34 33 34 37 42 46 53 61 68 68 68 66 60 55 52 52 53 53 53 53 54 58 60 57 46 42 37 38 38 38 37 38 37 36 35 35 35 34 34 33
38 38 38 38 34 34 33 32 36 40 42 48 58 61 61 63 64 65 62 60 56 55 55 56 57 63 62 53 47 42 40 41 40 40 40 40 40 40 40 40 36 34 34
40 43 43 40 43 43 40 38 38 46 50 48 46 52 57 59 61 62 60 57 54 54 60 60 59 64 66 63 52 48 42 42 43 43 42 43 43 43 44 44 45 44 43
44 46 47 52 52 50 49 50 46 47 50 53 53 53 53 57 64 66 66 65 62 62 67 67 66 63 70 69 60 53 47 44 44 45 45 45 46 46 46 46 46 46 47
45 44 51 50 42 41 44 46 56 55 60 62 66 63 61 62 65 68 76 76 70 69 74 75 75 70 72 76 70 59 53 47 47 48 48 49 49 50 50 50 50 50 50
26 31 37 37 35 36 42 46 50 50 65 70 80 84 82 68 58 64 71 78 76 78 76 78 80 83 74 81 80 68 60 52 49 50 51 52 53 53 54 55 55 54 54
21 34 55 30 27 24 27 36 46 58 62 64 73 75 76 67 69 67 74 76 78 76 78 82 82 86 84 88 92 82 68 55 51 52 53 54 56 58 58 59 59 57 56
24 27 32 34 36 35 33 34 39 48 47 49 59 64 73 75 82 76 75 82 80 77 77 80 84 93 97 99 100 99 93 60 52 53 55 59 59 58 60 62 64 62 63
16 18 23 25 27 26 25 30 31 35 32 47 52 57 65 66 64 86 91 97 88 92 90 91 96 90 100 99 100 100 100 100 98 79 73 60 60 63 67 65 67 67 74
14 14 15 17 19 21 32 55 69 57 54 53 67 71 76 73 72 99 94 94 99 100 100 93 89 99 98 96 100 100 99 100 100 100 90 58 61 76 97 98 92 98 99
18 21 24 26 29 30 31 51 32 37 36 36 37 37 41 46 50 65 73 88 89 99 98 94 99 100 97 100 100 100 100 100 99 98 98 85 68 97 99 99 99 100 100
31 34 35 36 38 38 38 36 36 36 38 38 39 39 38 41 50 58 62 67 66 90 81 93 99 100 100 99 99 99 99 100 99 99 99 98 99 99 98 98 99 98 99
24 22 20 27 41 46 44 43 44 45 44 46 48 47 47 47 50 51 55 64 70 97 99 89 97 100 100 96 98 99 100 99 99 98 98 99 99 97 98 99 99 98 99
14 14 18 23 28 36 46 49 48 48 46 48 53 57 59 60 58 58 61 62 67 80 85 81 98 100 98 98 92 99 100 99 95 98 98 98 96 98 98 99 98 98 98
24 32 37 37 36 39 40 40 39 42 49 52 58 67 64 65 65 68 70 66 76 78 89 96 99 100 100 99 92 100 98 98 100 100 99 100 96 98 99 99 98 96 92
37 44 48 43 38 34 34 35 37 38 44 48 56 60 58 66 68 72 73 90 99 79 85 94 98 97 92 99 89 96 98 99 99 99 99 100 97 96 97 96 92 85 82
46 49 42 25 25 27 25 25 28 31 39 41 42 46 53 64 65 62 65 68 72 91 98 100 94 98 90 95 98 98 96 98 98 99 100 99 98 92 92 78 54 29 14
29 20 21 19 18 18 20 24 27 33 37 40 42 46 50 60 59 56 58 54 84 94 96 99 95 94 100 100 99 99 97 97 97 100 100 94 64 32 16 6 2 2 3
19 21 18 17 20 22 22 25 29 30 33 35 37 42 52 57 52 54 62 73 86 94 98 97 99 100 100 97 96 97 96 93 91 64 32 14 6 2 3 5 6 8 9
23 22 22 23 30 35 32 35 47 42 44 43 38 38 44 50 59 74 74 87 91 99 96 99 98 94 94 92 92 67 40 25 14 7 2 3 5 7 10 13 13 14 15
35 32 32 42 47 46 49 51 52 42 32 54 60 62 62 64 72 74 75 82 87 91 93 94 73 44 28 24 19 12 6 3 2 4 7 10 12 15 16 18 18 17 18
47 45 52 33 25 33 28 20 13 4 3 4 5 16 21 34 48 65 71 62 47 38 29 22 20 15 8 4 3 2 2 5 8 12 14 18 19 21 23 23 24 25 26
49 57 37 24 6 4 4 3 3 2 2 2 2 2 2 2 2 2 3 3 3 3 3 3 3 2 2 2 2 5 8 13 17 20 22 24 26 30 31 31 30 30 29
44 37 25 12 5 6 6 6 5 5 5 5 4 4 3 3 3 3 3 3 3 2 2 2 2 2 2 3 6 11 16 20 25 29 31 31 32 32 34 35 33 32 32